FW0394 Weather Reports


Display with metric or nautical units.
time (UTC)temp
F
wind
direction
speed
MPH
gust
MPH
rain 1hr
in
rain 24hr
in
rain mn
in
humidity
%
barometer
mb
20260905184214 89 56 6.0 13.0 0.00 0.00 0.00 65 1015.1
20260905183713 89 62 6.0 13.0 0.00 0.00 0.00 65 1015.2
20260905183004 88 53 6.0 17.0 0.00 0.00 0.00 67 1015.3
20260905182503 88 55 6.0 15.0 0.00 0.00 0.00 67 1015.3
20260905182003 88 51 6.0 16.0 0.00 0.00 0.00 68 1015.3
20260905181713 88 51 6.0 16.0 0.00 0.00 0.00 67 1015.3
20260905181003 88 53 6.0 13.0 0.00 0.00 0.00 68 1015.3
20260905180503 88 48 6.0 13.0 0.00 0.00 0.00 69 1015.3
20260905180003 88 49 5.0 14.0 0.00 0.00 0.00 68 1015.3
20260905175503 88 45 6.0 14.0 0.00 0.00 0.00 68 1015.2
20260905175003 88 43 6.0 14.0 0.00 0.00 0.00 69 1015.1
20260905174503 88 40 6.0 15.0 0.00 0.00 0.00 67 1015.1
20260905174013 88 41 7.0 17.0 0.00 0.00 0.00 67 1015.1
20260905173503 88 42 5.0 17.0 0.00 0.00 0.00 67 1015.1
20260905173004 88 39 5.0 13.0 0.00 0.00 0.00 67 1015.0
20260905172503 88 43 5.0 13.0 0.00 0.00 0.00 66 1015.1
20260905172003 88 41 4.0 13.0 0.00 0.00 0.00 67 1015.2
20260905171712 88 38 5.0 13.0 0.00 0.00 0.00 66 1015.3
20260905171213 88 34 7.0 15.0 0.00 0.00 0.00 65 1015.3
20260905170503 88 26 4.0 12.0 0.00 0.00 0.00 66 1015.2
20260905170213 88 27 4.0 12.0 0.00 0.00 0.00 65 1015.2
20260905165504 88 37 5.0 14.0 0.00 0.00 0.00 64 1015.3
20260905165003 88 38 5.0 14.0 0.00 0.00 0.00 65 1015.3
20260905164503 88 45 4.0 11.0 0.00 0.00 0.00 67 1015.3
20260905164003 88 39 3.0 9.0 0.00 0.00 0.00 66 1015.3
20260905163503 88 34 3.0 9.0 0.00 0.00 0.00 65 1015.4
20260905163004 89 40 3.0 9.0 0.00 0.00 0.00 66 1015.3
20260905162504 88 40 3.0 9.0 0.00 0.00 0.00 65 1015.3
20260905162003 88 41 3.0 9.0 0.00 0.00 0.00 65 1015.2
20260905161503 88 45 2.0 8.0 0.00 0.00 0.00 66 1015.2
20260905161003 87 53 2.0 8.0 0.00 0.00 0.00 66 1015.0
20260905160714 87 51 2.0 5.0 0.00 0.00 0.00 67 1015.0
20260905160003 87 49 1.0 5.0 0.00 0.00 0.00 66 1014.9
20260905155504 86 62 1.0 4.0 0.00 0.00 0.00 67 1014.9
20260905155003 86 64 2.0 4.0 0.00 0.00 0.00 67 1014.8
20260905154503 85 70 1.0 3.0 0.00 0.00 0.00 67 1014.9
20260905154003 85 72 1.0 3.0 0.00 0.00 0.00 67 1014.9
20260905153714 85 74 0.0 3.0 0.00 0.00 0.00 69 1014.8
20260905153003 84 79 0.0 3.0 0.00 0.00 0.00 69 1014.8
20260905152504 84 74 0.0 3.0 0.00 0.00 0.00 70 1014.9
20260905152004 84 64 0.0 2.0 0.00 0.00 0.00 71 1014.6
20260905151503 84 64 0.0 2.0 0.00 0.00 0.00 73 1014.4
20260905151003 84 65 0.0 2.0 0.00 0.00 0.00 71 1014.4
20260905150713 84 65 0.0 2.0 0.00 0.00 0.00 72 1014.4
20260905150003 83 63 1.0 3.0 0.00 0.00 0.00 71 1014.4
20260905145504 83 63 0.0 3.0 0.00 0.00 0.00 71 1014.4
20260905145215 83 0 0.0 0.0 0.00 0.00 0.00 72 1014.3
20260905144503 82 84 0.0 1.0 0.00 0.00 0.00 74 1014.1
20260905144003 82 84 0.0 1.0 0.00 0.00 0.00 74 1014.0
20260905143713 82 0 0.0 1.0 0.00 0.00 0.00 74 1013.9
20260905143003 82 92 1.0 3.0 0.00 0.00 0.00 75 1013.8
20260905142713 82 112 1.0 3.0 0.00 0.00 0.00 74 1013.7
20260905142212 81 143 1.0 4.0 0.00 0.00 0.00 74 1013.7
20260905141504 81 143 3.0 8.0 0.00 0.00 0.00 77 1013.5
20260905141003 80 140 3.0 8.0 0.00 0.00 0.00 75 1013.3
20260905140713 80 136 3.0 7.0 0.00 0.00 0.00 77 1013.4
20260905140004 80 133 2.0 5.0 0.00 0.00 0.00 78 1013.5
20260905135503 79 106 1.0 4.0 0.00 0.00 0.00 78 1013.6
20260905135003 79 77 1.0 3.0 0.00 0.00 0.00 79 1013.7
20260905134504 78 77 1.0 3.0 0.00 0.00 0.00 80 1013.7
20260905134214 78 78 0.0 3.0 0.00 0.00 0.00 79 1013.8
20260905133503 78 0 0.0 0.0 0.00 0.00 0.00 81 1013.7
20260905133003 77 130 0.0 4.0 0.00 0.00 0.00 81 1013.7
20260905132503 77 132 1.0 4.0 0.00 0.00 0.00 81 1013.5
20260905132003 77 134 0.0 3.0 0.00 0.00 0.00 82 1013.3
20260905131503 76 0 0.0 0.0 0.00 0.00 0.00 83 1013.2
20260905131214 76 0 0.0 0.0 0.00 0.00 0.00 83 1013.2
20260905130503 76 135 0.0 2.0 0.00 0.00 0.00 84 1013.2
20260905130003 76 135 0.0 2.0 0.00 0.00 0.00 84 1013.2
20260905125503 75 135 0.0 2.0 0.00 0.00 0.00 84 1013.1
20260905125003 75 0 0.0 0.0 0.00 0.00 0.00 84 1013.0
20260905124503 75 135 0.0 2.0 0.00 0.00 0.00 84 1012.9
20260905124003 75 135 0.0 2.0 0.00 0.00 0.00 84 1012.9
20260905123504 75 135 0.0 2.0 0.00 0.00 0.00 84 1012.8
20260905123213 75 135 0.0 2.0 0.00 0.00 0.00 84 1012.8
20260905122503 75 135 0.0 2.0 0.00 0.00 0.00 84 1012.6
20260905122003 75 135 1.0 3.0 0.00 0.00 0.00 84 1012.4
20260905121503 75 136 1.0 3.0 0.00 0.00 0.00 83 1012.4
20260905121003 75 137 1.0 3.0 0.00 0.00 0.00 84 1012.4
20260905120712 75 137 0.0 2.0 0.00 0.00 0.00 84 1012.5
20260905120004 75 137 0.0 1.0 0.00 0.00 0.00 84 1012.4
20260905115503 75 0 0.0 0.0 0.00 0.00 0.00 84 1012.3
20260905115003 75 137 0.0 1.0 0.00 0.00 0.00 84 1012.4
20260905114503 75 137 1.0 1.0 0.00 0.00 0.00 84 1012.3
20260905114003 75 137 0.0 3.0 0.00 0.00 0.00 85 1012.5
20260905113503 75 138 0.0 3.0 0.00 0.00 0.00 85 1012.4
20260905113003 75 140 0.0 1.0 0.00 0.00 0.00 85 1012.3
20260905112503 74 140 0.0 1.0 0.00 0.00 0.00 84 1012.3
20260905112003 75 140 0.0 1.0 0.00 0.00 0.00 84 1012.2
20260905111503 75 140 0.0 2.0 0.00 0.00 0.00 85 1012.2
20260905111213 75 140 0.0 2.0 0.00 0.00 0.00 85 1012.3
20260905110504 75 140 0.0 2.0 0.00 0.00 0.00 85 1012.2
20260905110003 75 140 0.0 2.0 0.00 0.00 0.00 85 1012.1
20260905105503 75 140 0.0 2.0 0.00 0.00 0.00 85 1012.2
20260905105003 75 0 0.0 0.0 0.00 0.00 0.00 85 1012.3
20260905104503 75 0 0.0 0.0 0.00 0.00 0.00 85 1012.3
20260905104213 75 0 0.0 0.0 0.00 0.00 0.00 85 1012.3
20260905103503 75 0 0.0 0.0 0.00 0.00 0.00 85 1012.1
20260905103213 75 0 0.0 0.0 0.00 0.00 0.00 85 1012.0
20260905102714 75 0 0.0 1.0 0.00 0.00 0.00 85 1011.9
20260905102003 75 0 0.0 1.0 0.00 0.00 0.00 85 1011.9
20260905101503 75 0 0.0 0.0 0.00 0.00 0.00 85 1011.9
20260905101003 75 0 0.0 1.0 0.00 0.00 0.00 84 1011.9
20260905100714 75 0 0.0 1.0 0.00 0.00 0.00 84 1011.9
20260905100003 75 0 0.0 0.0 0.00 0.00 0.00 84 1011.8
20260905095503 75 0 0.0 0.0 0.00 0.00 0.00 84 1011.8
20260905095212 75 0 0.0 1.0 0.00 0.00 0.00 84 1011.7
20260905094503 76 140 0.0 1.0 0.00 0.00 0.00 83 1011.7
20260905094003 76 140 0.0 1.0 0.00 0.00 0.00 83 1011.6
20260905093503 76 0 0.0 0.0 0.00 0.00 0.00 82 1011.5
20260905093003 77 0 0.0 0.0 0.00 0.00 0.00 81 1011.5
20260905092713 77 0 0.0 0.0 0.00 0.00 0.00 81 1011.5
20260905092003 77 0 0.0 0.0 0.00 0.00 0.00 80 1011.5
20260905091503 77 0 0.0 0.0 0.00 0.00 0.00 80 1011.6
20260905091003 77 0 0.0 1.0 0.00 0.00 0.00 80 1011.7
20260905090503 77 140 0.0 1.0 0.00 0.00 0.00 80 1011.6
20260905090003 77 140 0.0 1.0 0.00 0.00 0.00 80 1011.7
20260905085503 78 140 0.0 2.0 0.00 0.00 0.00 79 1011.7
20260905085005 78 140 0.0 2.0 0.00 0.00 0.00 79 1011.8
20260905084504 78 140 0.0 2.0 0.00 0.00 0.00 79 1011.8
20260905084003 78 140 1.0 2.0 0.00 0.00 0.00 79 1011.9
20260905083503 78 140 1.0 2.0 0.00 0.00 0.00 79 1011.9
20260905083003 78 140 0.0 2.0 0.00 0.00 0.00 79 1012.0
20260905082503 78 140 0.0 2.0 0.00 0.00 0.00 80 1011.9
20260905082003 78 0 0.0 0.0 0.00 0.00 0.00 80 1012.0
20260905081713 78 0 0.0 0.0 0.00 0.00 0.00 80 1012.0
20260905081003 78 0 0.0 0.0 0.00 0.00 0.00 80 1012.1
20260905080504 78 140 0.0 1.0 0.00 0.00 0.00 80 1012.1
20260905080003 78 140 0.0 2.0 0.00 0.00 0.00 80 1012.2
20260905075503 78 140 0.0 2.0 0.00 0.00 0.00 80 1012.2
20260905075214 78 140 0.0 2.0 0.00 0.00 0.00 80 1012.3
20260905074504 78 0 0.0 0.0 0.00 0.00 0.00 80 1012.3
20260905074003 78 0 0.0 0.0 0.00 0.00 0.00 80 1012.4
20260905073503 78 0 0.0 0.0 0.00 0.00 0.00 79 1012.4
20260905073003 78 0 0.0 0.0 0.00 0.00 0.00 80 1012.4
20260905072503 78 0 0.0 0.0 0.00 0.00 0.00 80 1012.5
20260905072003 78 0 0.0 0.0 0.00 0.00 0.00 79 1012.4
20260905071503 79 0 0.0 0.0 0.00 0.00 0.00 80 1012.5
20260905071213 79 0 0.0 0.0 0.00 0.00 0.00 79 1012.5
20260905070503 79 0 0.0 0.0 0.00 0.00 0.00 79 1012.4
20260905070003 79 0 0.0 0.0 0.00 0.00 0.00 80 1012.5
20260905065503 79 0 0.0 0.0 0.00 0.00 0.00 80 1012.5
20260905065213 79 0 0.0 0.0 0.00 0.00 0.00 80 1012.5
20260905064503 79 0 0.0 0.0 0.00 0.00 0.00 80 1012.6
20260905064003 79 0 0.0 0.0 0.00 0.00 0.00 80 1012.7
20260905063503 80 0 0.0 0.0 0.00 0.00 0.00 80 1012.7
20260905063003 80 0 0.0 0.0 0.00 0.00 0.00 79 1012.6
20260905062503 80 0 0.0 1.0 0.00 0.00 0.00 79 1012.6
20260905062003 80 0 0.0 1.0 0.00 0.00 0.00 79 1012.6
20260905061503 80 0 0.0 0.0 0.00 0.00 0.00 78 1012.6
20260905061003 80 140 0.0 2.0 0.00 0.00 0.00 78 1012.6
20260905060503 81 140 0.0 2.0 0.00 0.00 0.00 78 1012.6
20260905060004 81 140 1.0 3.0 0.00 0.00 0.00 77 1012.6
20260905055503 81 140 1.0 3.0 0.00 0.00 0.00 77 1012.6
20260905055003 81 142 1.0 4.0 0.00 0.00 0.00 77 1012.5
20260905054503 81 150 1.0 4.0 0.00 0.00 0.00 77 1012.6
20260905054004 81 155 1.0 3.0 0.00 0.00 0.00 77 1012.6
20260905053503 81 158 0.0 2.0 0.00 0.00 0.00 77 1012.5
20260905053003 81 158 0.0 2.0 0.00 0.00 0.00 77 1012.5
20260905052503 81 158 0.0 2.0 0.00 0.00 0.00 77 1012.5
20260905052213 81 158 0.0 2.0 0.00 0.00 0.00 78 1012.4
20260905051503 81 0 0.0 0.0 0.00 0.00 0.00 78 1012.5
20260905051003 81 0 0.0 1.0 0.00 0.00 0.00 78 1012.4
20260905050503 82 159 0.0 2.0 0.00 0.00 0.00 79 1012.4
20260905050215 82 159 0.0 2.0 0.00 0.00 0.00 78 1012.3
20260905045503 82 159 0.0 1.0 0.00 0.00 0.00 78 1012.4
20260905045003 82 159 0.0 1.0 0.00 0.00 0.00 78 1012.3
20260905044504 82 159 0.0 1.0 0.00 0.00 0.00 78 1012.3
20260905044003 82 0 0.0 0.0 0.00 0.00 0.00 78 1012.2
20260905043503 82 0 0.0 0.0 0.00 0.00 0.00 77 1012.2
20260905043004 83 0 0.0 0.0 0.00 0.00 0.00 77 1012.2
20260905042503 83 0 0.0 0.0 0.00 0.00 0.00 77 1012.1
20260905042003 83 159 0.0 4.0 0.00 0.00 0.00 77 1012.0
20260905041503 83 160 1.0 4.0 0.00 0.00 0.00 76 1012.0
20260905041212 83 160 1.0 4.0 0.00 0.00 0.00 76 1011.9
20260905040713 83 161 0.0 2.0 0.00 0.00 0.00 76 1011.9
20260905040004 84 161 0.0 2.0 0.00 0.00 0.00 76 1012.0
20260905035713 84 0 0.0 0.0 0.00 0.00 0.00 76 1011.9
20260905035003 84 0 0.0 0.0 0.00 0.00 0.00 75 1011.9
20260905034503 84 0 0.0 0.0 0.00 0.00 0.00 74 1011.9
20260905034003 84 0 0.0 0.0 0.00 0.00 0.00 74 1011.9
20260905033504 85 0 0.0 0.0 0.00 0.00 0.00 74 1011.8
20260905033003 85 0 0.0 0.0 0.00 0.00 0.00 73 1011.8
20260905032504 86 0 0.0 0.0 0.00 0.00 0.00 73 1011.7
20260905032003 86 0 0.0 0.0 0.00 0.00 0.00 72 1011.6
20260905031503 86 0 0.0 0.0 0.00 0.00 0.00 72 1011.6
20260905031003 86 0 0.0 0.0 0.00 0.00 0.00 72 1011.5
20260905030503 86 0 0.0 0.0 0.00 0.00 0.00 72 1011.5
20260905030003 86 0 0.0 0.0 0.00 0.00 0.00 72 1011.5
20260905025503 86 0 0.0 0.0 0.00 0.00 0.00 72 1011.5
20260905025003 86 0 0.0 0.0 0.00 0.00 0.00 72 1011.4
20260905024503 86 0 0.0 0.0 0.00 0.00 0.00 72 1011.5
20260905024003 87 0 0.0 0.0 0.00 0.00 0.00 72 1011.5
20260905023503 87 0 0.0 0.0 0.00 0.00 0.00 72 1011.5
20260905023003 87 158 0.0 2.0 0.00 0.00 0.00 72 1011.4
20260905022503 87 158 0.0 2.0 0.00 0.00 0.00 72 1011.4
20260905022214 87 158 0.0 2.0 0.00 0.00 0.00 72 1011.3
20260905021713 87 158 0.0 1.0 0.00 0.00 0.00 72 1011.3
20260905021003 87 158 0.0 1.0 0.00 0.00 0.00 71 1011.4
20260905020503 87 158 0.0 2.0 0.00 0.00 0.00 70 1011.3
20260905020003 88 158 0.0 2.0 0.00 0.00 0.00 71 1011.3
20260905015503 88 0 0.0 0.0 0.00 0.00 0.00 70 1011.1
20260905015003 88 0 0.0 0.0 0.00 0.00 0.00 70 1011.2
20260905014713 88 0 0.0 0.0 0.00 0.00 0.00 70 1011.1
20260905014003 88 0 0.0 0.0 0.00 0.00 0.00 69 1010.9
20260905013712 88 0 0.0 0.0 0.00 0.00 0.00 69 1010.9
20260905013003 89 0 0.0 0.0 0.00 0.00 0.00 68 1010.9
20260905012503 89 0 0.0 0.0 0.00 0.00 0.00 68 1010.8
20260905012003 89 0 0.0 0.0 0.00 0.00 0.00 68 1010.8
20260905011503 89 0 0.0 0.0 0.00 0.00 0.00 67 1010.7
20260905011003 90 0 0.0 0.0 0.00 0.00 0.00 67 1010.7
20260905010714 90 0 0.0 0.0 0.00 0.00 0.00 67 1010.7
20260905010003 90 0 0.0 0.0 0.00 0.00 0.00 66 1010.7
20260905005504 90 0 0.0 0.0 0.00 0.00 0.00 66 1010.6
20260905005003 90 0 0.0 0.0 0.00 0.00 0.00 66 1010.6
20260905004503 90 163 0.0 1.0 0.00 0.00 0.00 66 1010.6
20260905004003 90 163 0.0 1.0 0.00 0.00 0.00 66 1010.7
20260905003503 91 0 0.0 1.0 0.00 0.00 0.00 66 1010.7
20260905003003 91 163 0.0 1.0 0.00 0.00 0.00 65 1010.8
20260905002503 92 163 0.0 2.0 0.00 0.00 0.00 64 1010.7
20260905002003 92 171 1.0 4.0 0.00 0.00 0.00 64 1010.6
20260905001504 92 178 2.0 4.0 0.00 0.00 0.00 62 1010.7
20260905001213 92 188 1.0 3.0 0.00 0.00 0.00 64 1010.6
20260905000503 92 182 1.0 5.0 0.00 0.00 0.00 64 1010.7
20260905000003 92 180 2.0 5.0 0.00 0.00 0.00 63 1010.7
20260904235503 92 194 2.0 5.0 0.00 0.00 0.00 62 1010.7
20260904235003 92 194 2.0 6.0 0.00 0.00 0.00 62 1010.7
20260904234504 92 176 1.0 6.0 0.00 0.00 0.00 63 1010.7
20260904234004 92 121 0.0 3.0 0.00 0.00 0.00 62 1010.7
20260904233503 92 211 0.0 2.0 0.00 0.00 0.00 63 1010.7
20260904233213 92 211 1.0 3.0 0.00 0.00 0.00 61 1010.8
20260904232503 93 211 1.0 3.0 0.00 0.00 0.00 61 1010.8
20260904232004 94 212 1.0 3.0 0.00 0.00 0.00 60 1010.9
20260904231713 94 212 1.0 3.0 0.00 0.00 0.00 60 1010.8
20260904231003 94 217 1.0 4.0 0.00 0.00 0.00 58 1011.0
20260904230713 94 219 1.0 4.0 0.00 0.00 0.00 59 1010.9
20260904230003 94 189 2.0 5.0 0.00 0.00 0.00 57 1010.9
20260904225713 94 185 2.0 5.0 0.00 0.00 0.00 57 1010.9
20260904225003 94 201 2.0 6.0 0.00 0.00 0.00 58 1010.9
20260904224503 94 203 2.0 7.0 0.00 0.00 0.00 59 1010.9
20260904224003 94 197 2.0 7.0 0.00 0.00 0.00 58 1010.8
20260904223503 94 191 2.0 8.0 0.00 0.00 0.00 57 1010.8
20260904223003 94 196 2.0 8.0 0.00 0.00 0.00 57 1010.8
20260904222503 94 201 2.0 6.0 0.00 0.00 0.00 57 1010.9
20260904222003 95 196 3.0 7.0 0.00 0.00 0.00 57 1010.9
20260904221503 95 195 3.0 8.0 0.00 0.00 0.00 55 1010.9
20260904221214 95 197 3.0 8.0 0.00 0.00 0.00 55 1010.9
20260904220503 96 201 4.0 8.0 0.00 0.00 0.00 54 1010.8
20260904220004 96 231 3.0 8.0 0.00 0.00 0.00 54 1010.8
20260904215503 96 223 3.0 9.0 0.00 0.00 0.00 54 1010.8
20260904215003 96 208 3.0 9.0 0.00 0.00 0.00 54 1010.8
20260904214503 96 213 4.0 9.0 0.00 0.00 0.00 55 1010.8
20260904214003 96 215 4.0 10.0 0.00 0.00 0.00 55 1010.8
20260904213503 96 209 4.0 10.0 0.00 0.00 0.00 55 1010.8
20260904213003 95 216 3.0 8.0 0.00 0.00 0.00 56 1010.8
20260904212503 95 224 4.0 9.0 0.00 0.00 0.00 55 1010.8
20260904212003 96 212 4.0 9.0 0.00 0.00 0.00 54 1010.8
20260904211503 96 210 4.0 11.0 0.00 0.00 0.00 55 1010.8
20260904211003 96 208 5.0 11.0 0.00 0.00 0.00 54 1010.9
20260904210503 96 221 4.0 10.0 0.00 0.00 0.00 54 1010.8
20260904210003 96 233 4.0 8.0 0.00 0.00 0.00 55 1010.8
20260904205503 96 211 4.0 8.0 0.00 0.00 0.00 57 1010.8
20260904205003 96 212 4.0 9.0 0.00 0.00 0.00 55 1010.8
20260904204713 96 212 4.0 11.0 0.00 0.00 0.00 54 1010.9
20260904204003 96 203 4.0 11.0 0.00 0.00 0.00 55 1010.8
20260904203503 96 217 3.0 7.0 0.00 0.00 0.00 56 1010.8
20260904203003 96 235 4.0 8.0 0.00 0.00 0.00 54 1010.8
20260904202504 96 218 4.0 12.0 0.00 0.00 0.00 56 1010.8
20260904202003 96 194 4.0 12.0 0.00 0.00 0.00 55 1010.9
20260904201504 95 174 4.0 11.0 0.00 0.00 0.00 58 1010.9
20260904201214 95 164 4.0 11.0 0.00 0.00 0.00 56 1011.0
20260904200503 96 180 4.0 11.0 0.00 0.00 0.00 56 1011.0
20260904200214 96 190 4.0 11.0 0.00 0.00 0.00 55 1011.0
20260904195714 96 205 4.0 11.0 0.00 0.00 0.00 55 1011.0
20260904195003 95 215 4.0 8.0 0.00 0.00 0.00 57 1011.0
20260904194503 95 215 4.0 8.0 0.00 0.00 0.00 57 1011.1
20260904194003 94 214 4.0 9.0 0.00 0.00 0.00 57 1011.2
20260904193503 94 208 4.0 9.0 0.00 0.00 0.00 57 1011.2
20260904193003 94 225 4.0 9.0 0.00 0.00 0.00 57 1011.2
20260904192504 94 247 4.0 9.0 0.00 0.00 0.00 57 1011.2
20260904192003 94 220 4.0 9.0 0.00 0.00 0.00 60 1011.2
20260904191714 94 200 4.0 9.0 0.00 0.00 0.00 59 1011.3
20260904191004 94 193 3.0 8.0 0.00 0.00 0.00 58 1011.4
20260904190714 94 186 3.0 8.0 0.00 0.00 0.00 58 1011.4
20260904190003 93 189 3.0 7.0 0.00 0.00 0.00 60 1011.3
20260904185503 93 208 3.0 8.0 0.00 0.00 0.00 58 1011.5
20260904185004 93 213 3.0 8.0 0.00 0.00 0.00 61 1011.5
20260904184504 93 242 3.0 8.0 0.00 0.00 0.00 60 1011.6